Voltar ao catálogo

TELECOM 2A

AtivoComunicaçõesGEO
NORAD 21813·PAYLOAD·🇫🇷 France

Lançado Dec 16, 1991 de Guiana Space Centre

Loading…

TLE

AtualizadoSource: Space-Track

Época: Sep 12, 2026, 21:00 UTC

1 21813U 91084A   26255.87549244  .00000035  00000-0  00000+0 0  9997
2 21813  14.6513   5.7948 0004830 219.3919 137.7108  0.98948660124957

Acompanhe TELECOM 2A em tempo real com AllMySat

Download on the App Store